Index of /20260502/WXO-DD/model_rdps/10km/18/051
Name Last modified Size Description
Parent Directory -
20260502T18Z_MSC_RDPS_AbsoluteVorticity_IsbL-0250_RLatLon0.09_PT051H.grib2 2026-05-02 20:55 610K
20260502T18Z_MSC_RDPS_AbsoluteVorticity_IsbL-0500_RLatLon0.09_PT051H.grib2 2026-05-02 20:55 567K
20260502T18Z_MSC_RDPS_AbsoluteVorticity_IsbL-0700_RLatLon0.09_PT051H.grib2 2026-05-02 20:55 620K
20260502T18Z_MSC_RDPS_AbsoluteVorticity_IsbL-0850_RLatLon0.09_PT051H.grib2 2026-05-02 20:55 790K
20260502T18Z_MSC_RDPS_AirTemp_AGL-120m_RLatLon0.09_PT051H.grib2 2026-05-02 20:55 393K
20260502T18Z_MSC_RDPS_AirTemp_AGL-2m_RLatLon0.09_PT051H.grib2 2026-05-02 20:55 629K
20260502T18Z_MSC_RDPS_AirTemp_AGL-40m_RLatLon0.09_PT051H.grib2 2026-05-02 20:55 402K
20260502T18Z_MSC_RDPS_AirTemp_AGL-80m_RLatLon0.09_PT051H.grib2 2026-05-02 20:55 397K
20260502T18Z_MSC_RDPS_AirTemp_IsbL-0001_RLatLon0.09_PT051H.grib2 2026-05-02 20:55 328K
20260502T18Z_MSC_RDPS_AirTemp_IsbL-0005_RLatLon0.09_PT051H.grib2 2026-05-02 20:55 298K
20260502T18Z_MSC_RDPS_AirTemp_IsbL-0010_RLatLon0.09_PT051H.grib2 2026-05-02 20:55 306K
20260502T18Z_MSC_RDPS_AirTemp_IsbL-0020_RLatLon0.09_PT051H.grib2 2026-05-02 20:55 420K
20260502T18Z_MSC_RDPS_AirTemp_IsbL-0030_RLatLon0.09_PT051H.grib2 2026-05-02 20:55 341K
20260502T18Z_MSC_RDPS_AirTemp_IsbL-0050_RLatLon0.09_PT051H.grib2 2026-05-02 20:55 322K
20260502T18Z_MSC_RDPS_AirTemp_IsbL-0100_RLatLon0.09_PT051H.grib2 2026-05-02 20:55 433K
20260502T18Z_MSC_RDPS_AirTemp_IsbL-0150_RLatLon0.09_PT051H.grib2 2026-05-02 20:55 422K
20260502T18Z_MSC_RDPS_AirTemp_IsbL-0175_RLatLon0.09_PT051H.grib2 2026-05-02 20:55 413K
20260502T18Z_MSC_RDPS_AirTemp_IsbL-0200_RLatLon0.09_PT051H.grib2 2026-05-02 20:55 416K
20260502T18Z_MSC_RDPS_AirTemp_IsbL-0225_RLatLon0.09_PT051H.grib2 2026-05-02 20:55 422K
20260502T18Z_MSC_RDPS_AirTemp_IsbL-0250_RLatLon0.09_PT051H.grib2 2026-05-02 20:55 427K
20260502T18Z_MSC_RDPS_AirTemp_IsbL-0275_RLatLon0.09_PT051H.grib2 2026-05-02 20:55 406K
20260502T18Z_MSC_RDPS_AirTemp_IsbL-0300_RLatLon0.09_PT051H.grib2 2026-05-02 20:55 412K
20260502T18Z_MSC_RDPS_AirTemp_IsbL-0350_RLatLon0.09_PT051H.grib2 2026-05-02 20:55 427K
20260502T18Z_MSC_RDPS_AirTemp_IsbL-0400_RLatLon0.09_PT051H.grib2 2026-05-02 20:55 431K
20260502T18Z_MSC_RDPS_AirTemp_IsbL-0450_RLatLon0.09_PT051H.grib2 2026-05-02 20:55 440K
20260502T18Z_MSC_RDPS_AirTemp_IsbL-0500_RLatLon0.09_PT051H.grib2 2026-05-02 20:55 452K
20260502T18Z_MSC_RDPS_AirTemp_IsbL-0550_RLatLon0.09_PT051H.grib2 2026-05-02 20:55 472K
20260502T18Z_MSC_RDPS_AirTemp_IsbL-0600_RLatLon0.09_PT051H.grib2 2026-05-02 20:55 453K
20260502T18Z_MSC_RDPS_AirTemp_IsbL-0650_RLatLon0.09_PT051H.grib2 2026-05-02 20:55 468K
20260502T18Z_MSC_RDPS_AirTemp_IsbL-0700_RLatLon0.09_PT051H.grib2 2026-05-02 20:55 491K
20260502T18Z_MSC_RDPS_AirTemp_IsbL-0750_RLatLon0.09_PT051H.grib2 2026-05-02 20:55 417K
20260502T18Z_MSC_RDPS_AirTemp_IsbL-0800_RLatLon0.09_PT051H.grib2 2026-05-02 20:55 462K
20260502T18Z_MSC_RDPS_AirTemp_IsbL-0850_RLatLon0.09_PT051H.grib2 2026-05-02 20:55 511K
20260502T18Z_MSC_RDPS_AirTemp_IsbL-0875_RLatLon0.09_PT051H.grib2 2026-05-02 20:55 529K
20260502T18Z_MSC_RDPS_AirTemp_IsbL-0900_RLatLon0.09_PT051H.grib2 2026-05-02 20:55 536K
20260502T18Z_MSC_RDPS_AirTemp_IsbL-0925_RLatLon0.09_PT051H.grib2 2026-05-02 20:55 530K
20260502T18Z_MSC_RDPS_AirTemp_IsbL-0950_RLatLon0.09_PT051H.grib2 2026-05-02 20:55 529K
20260502T18Z_MSC_RDPS_AirTemp_IsbL-0970_RLatLon0.09_PT051H.grib2 2026-05-02 20:55 522K
20260502T18Z_MSC_RDPS_AirTemp_IsbL-0985_RLatLon0.09_PT051H.grib2 2026-05-02 20:55 509K
20260502T18Z_MSC_RDPS_AirTemp_IsbL-1000_RLatLon0.09_PT051H.grib2 2026-05-02 20:55 497K
20260502T18Z_MSC_RDPS_AirTemp_IsbL-1015_RLatLon0.09_PT051H.grib2 2026-05-02 20:55 512K
20260502T18Z_MSC_RDPS_Albedo_Sfc_RLatLon0.09_PT051H.grib2 2026-05-02 20:55 161K
20260502T18Z_MSC_RDPS_CAPE_Sfc_RLatLon0.09_PT051H.grib2 2026-05-02 20:55 1.8M
20260502T18Z_MSC_RDPS_CIN_Sfc_RLatLon0.09_PT051H.grib2 2026-05-02 20:55 1.3M
20260502T18Z_MSC_RDPS_CloudWater_EAtm_RLatLon0.09_PT051H.grib2 2026-05-02 20:55 225K
20260502T18Z_MSC_RDPS_ConvectivePrecip-Accum_Sfc_RLatLon0.09_PT051H.grib2 2026-05-02 20:55 1.1M
20260502T18Z_MSC_RDPS_DewPointDepression_AGL-2m_RLatLon0.09_PT051H.grib2 2026-05-02 20:55 425K
20260502T18Z_MSC_RDPS_DewPointDepression_IsbL-0001_RLatLon0.09_PT051H.grib2 2026-05-02 20:55 193
20260502T18Z_MSC_RDPS_DewPointDepression_IsbL-0005_RLatLon0.09_PT051H.grib2 2026-05-02 20:55 193
20260502T18Z_MSC_RDPS_DewPointDepression_IsbL-0010_RLatLon0.09_PT051H.grib2 2026-05-02 20:55 193
20260502T18Z_MSC_RDPS_DewPointDepression_IsbL-0020_RLatLon0.09_PT051H.grib2 2026-05-02 20:55 193
20260502T18Z_MSC_RDPS_DewPointDepression_IsbL-0030_RLatLon0.09_PT051H.grib2 2026-05-02 20:55 193
20260502T18Z_MSC_RDPS_DewPointDepression_IsbL-0050_RLatLon0.09_PT051H.grib2 2026-05-02 20:55 81K
20260502T18Z_MSC_RDPS_DewPointDepression_IsbL-0100_RLatLon0.09_PT051H.grib2 2026-05-02 20:55 119K
20260502T18Z_MSC_RDPS_DewPointDepression_IsbL-0150_RLatLon0.09_PT051H.grib2 2026-05-02 20:55 148K
20260502T18Z_MSC_RDPS_DewPointDepression_IsbL-0175_RLatLon0.09_PT051H.grib2 2026-05-02 20:55 186K
20260502T18Z_MSC_RDPS_DewPointDepression_IsbL-0200_RLatLon0.09_PT051H.grib2 2026-05-02 20:55 223K
20260502T18Z_MSC_RDPS_DewPointDepression_IsbL-0225_RLatLon0.09_PT051H.grib2 2026-05-02 20:55 267K
20260502T18Z_MSC_RDPS_DewPointDepression_IsbL-0250_RLatLon0.09_PT051H.grib2 2026-05-02 20:55 304K
20260502T18Z_MSC_RDPS_DewPointDepression_IsbL-0275_RLatLon0.09_PT051H.grib2 2026-05-02 20:55 309K
20260502T18Z_MSC_RDPS_DewPointDepression_IsbL-0300_RLatLon0.09_PT051H.grib2 2026-05-02 20:55 325K
20260502T18Z_MSC_RDPS_DewPointDepression_IsbL-0350_RLatLon0.09_PT051H.grib2 2026-05-02 20:55 331K
20260502T18Z_MSC_RDPS_DewPointDepression_IsbL-0400_RLatLon0.09_PT051H.grib2 2026-05-02 20:55 346K
20260502T18Z_MSC_RDPS_DewPointDepression_IsbL-0450_RLatLon0.09_PT051H.grib2 2026-05-02 20:55 349K
20260502T18Z_MSC_RDPS_DewPointDepression_IsbL-0500_RLatLon0.09_PT051H.grib2 2026-05-02 20:55 352K
20260502T18Z_MSC_RDPS_DewPointDepression_IsbL-0550_RLatLon0.09_PT051H.grib2 2026-05-02 20:55 361K
20260502T18Z_MSC_RDPS_DewPointDepression_IsbL-0600_RLatLon0.09_PT051H.grib2 2026-05-02 20:55 373K
20260502T18Z_MSC_RDPS_DewPointDepression_IsbL-0650_RLatLon0.09_PT051H.grib2 2026-05-02 20:55 386K
20260502T18Z_MSC_RDPS_DewPointDepression_IsbL-0700_RLatLon0.09_PT051H.grib2 2026-05-02 20:55 402K
20260502T18Z_MSC_RDPS_DewPointDepression_IsbL-0750_RLatLon0.09_PT051H.grib2 2026-05-02 20:55 419K
20260502T18Z_MSC_RDPS_DewPointDepression_IsbL-0800_RLatLon0.09_PT051H.grib2 2026-05-02 20:55 458K
20260502T18Z_MSC_RDPS_DewPointDepression_IsbL-0850_RLatLon0.09_PT051H.grib2 2026-05-02 20:55 482K
20260502T18Z_MSC_RDPS_DewPointDepression_IsbL-0875_RLatLon0.09_PT051H.grib2 2026-05-02 20:55 481K
20260502T18Z_MSC_RDPS_DewPointDepression_IsbL-0900_RLatLon0.09_PT051H.grib2 2026-05-02 20:55 470K
20260502T18Z_MSC_RDPS_DewPointDepression_IsbL-0925_RLatLon0.09_PT051H.grib2 2026-05-02 20:55 455K
20260502T18Z_MSC_RDPS_DewPointDepression_IsbL-0950_RLatLon0.09_PT051H.grib2 2026-05-02 20:55 447K
20260502T18Z_MSC_RDPS_DewPointDepression_IsbL-0970_RLatLon0.09_PT051H.grib2 2026-05-02 20:55 441K
20260502T18Z_MSC_RDPS_DewPointDepression_IsbL-0985_RLatLon0.09_PT051H.grib2 2026-05-02 20:55 436K
20260502T18Z_MSC_RDPS_DewPointDepression_IsbL-1000_RLatLon0.09_PT051H.grib2 2026-05-02 20:55 432K
20260502T18Z_MSC_RDPS_DewPointDepression_IsbL-1015_RLatLon0.09_PT051H.grib2 2026-05-02 20:55 424K
20260502T18Z_MSC_RDPS_DewPoint_AGL-2m_RLatLon0.09_PT051H.grib2 2026-05-02 20:55 311K
20260502T18Z_MSC_RDPS_DownwardLongwaveRadiationFlux-Accum_Sfc_RLatLon0.09_PT051H.grib2 2026-05-02 20:55 378K
20260502T18Z_MSC_RDPS_DownwardShortwaveRadiationFlux-Accum_NTAtm_RLatLon0.09_PT051H.grib2 2026-05-02 20:55 131K
20260502T18Z_MSC_RDPS_DownwardShortwaveRadiationFlux-Accum_Sfc_RLatLon0.09_PT051H.grib2 2026-05-02 20:55 581K
20260502T18Z_MSC_RDPS_FreezingRain-Accum1h_Sfc_RLatLon0.09_PT051H.grib2 2026-05-02 20:55 9.9K
20260502T18Z_MSC_RDPS_FreezingRain-Accum3h_Sfc_RLatLon0.09_PT051H.grib2 2026-05-02 20:55 15K
20260502T18Z_MSC_RDPS_FreezingRain-Accum_Sfc_RLatLon0.09_PT051H.grib2 2026-05-02 20:55 158K
20260502T18Z_MSC_RDPS_GeopotentialHeight_IsbL-0001_RLatLon0.09_PT051H.grib2 2026-05-02 20:55 357K
20260502T18Z_MSC_RDPS_GeopotentialHeight_IsbL-0005_RLatLon0.09_PT051H.grib2 2026-05-02 20:55 344K
20260502T18Z_MSC_RDPS_GeopotentialHeight_IsbL-0010_RLatLon0.09_PT051H.grib2 2026-05-02 20:55 313K
20260502T18Z_MSC_RDPS_GeopotentialHeight_IsbL-0020_RLatLon0.09_PT051H.grib2 2026-05-02 20:55 411K
20260502T18Z_MSC_RDPS_GeopotentialHeight_IsbL-0030_RLatLon0.09_PT051H.grib2 2026-05-02 20:55 413K
20260502T18Z_MSC_RDPS_GeopotentialHeight_IsbL-0050_RLatLon0.09_PT051H.grib2 2026-05-02 20:55 316K
20260502T18Z_MSC_RDPS_GeopotentialHeight_IsbL-0100_RLatLon0.09_PT051H.grib2 2026-05-02 20:55 291K
20260502T18Z_MSC_RDPS_GeopotentialHeight_IsbL-0150_RLatLon0.09_PT051H.grib2 2026-05-02 20:55 234K
20260502T18Z_MSC_RDPS_GeopotentialHeight_IsbL-0175_RLatLon0.09_PT051H.grib2 2026-05-02 20:55 237K
20260502T18Z_MSC_RDPS_GeopotentialHeight_IsbL-0200_RLatLon0.09_PT051H.grib2 2026-05-02 20:55 239K
20260502T18Z_MSC_RDPS_GeopotentialHeight_IsbL-0225_RLatLon0.09_PT051H.grib2 2026-05-02 20:55 240K
20260502T18Z_MSC_RDPS_GeopotentialHeight_IsbL-0250_RLatLon0.09_PT051H.grib2 2026-05-02 20:55 241K
20260502T18Z_MSC_RDPS_GeopotentialHeight_IsbL-0275_RLatLon0.09_PT051H.grib2 2026-05-02 20:55 240K
20260502T18Z_MSC_RDPS_GeopotentialHeight_IsbL-0300_RLatLon0.09_PT051H.grib2 2026-05-02 20:55 240K
20260502T18Z_MSC_RDPS_GeopotentialHeight_IsbL-0350_RLatLon0.09_PT051H.grib2 2026-05-02 20:55 234K
20260502T18Z_MSC_RDPS_GeopotentialHeight_IsbL-0400_RLatLon0.09_PT051H.grib2 2026-05-02 20:55 230K
20260502T18Z_MSC_RDPS_GeopotentialHeight_IsbL-0450_RLatLon0.09_PT051H.grib2 2026-05-02 20:55 301K
20260502T18Z_MSC_RDPS_GeopotentialHeight_IsbL-0500_RLatLon0.09_PT051H.grib2 2026-05-02 20:55 297K
20260502T18Z_MSC_RDPS_GeopotentialHeight_IsbL-0550_RLatLon0.09_PT051H.grib2 2026-05-02 20:55 293K
20260502T18Z_MSC_RDPS_GeopotentialHeight_IsbL-0600_RLatLon0.09_PT051H.grib2 2026-05-02 20:55 287K
20260502T18Z_MSC_RDPS_GeopotentialHeight_IsbL-0650_RLatLon0.09_PT051H.grib2 2026-05-02 20:55 259K
20260502T18Z_MSC_RDPS_GeopotentialHeight_IsbL-0700_RLatLon0.09_PT051H.grib2 2026-05-02 20:55 342K
20260502T18Z_MSC_RDPS_GeopotentialHeight_IsbL-0750_RLatLon0.09_PT051H.grib2 2026-05-02 20:55 345K
20260502T18Z_MSC_RDPS_GeopotentialHeight_IsbL-0800_RLatLon0.09_PT051H.grib2 2026-05-02 20:55 352K
20260502T18Z_MSC_RDPS_GeopotentialHeight_IsbL-0850_RLatLon0.09_PT051H.grib2 2026-05-02 20:55 360K
20260502T18Z_MSC_RDPS_GeopotentialHeight_IsbL-0875_RLatLon0.09_PT051H.grib2 2026-05-02 20:55 362K
20260502T18Z_MSC_RDPS_GeopotentialHeight_IsbL-0900_RLatLon0.09_PT051H.grib2 2026-05-02 20:55 368K
20260502T18Z_MSC_RDPS_GeopotentialHeight_IsbL-0925_RLatLon0.09_PT051H.grib2 2026-05-02 20:55 370K
20260502T18Z_MSC_RDPS_GeopotentialHeight_IsbL-0950_RLatLon0.09_PT051H.grib2 2026-05-02 20:55 375K
20260502T18Z_MSC_RDPS_GeopotentialHeight_IsbL-0970_RLatLon0.09_PT051H.grib2 2026-05-02 20:55 292K
20260502T18Z_MSC_RDPS_GeopotentialHeight_IsbL-0985_RLatLon0.09_PT051H.grib2 2026-05-02 20:55 299K
20260502T18Z_MSC_RDPS_GeopotentialHeight_IsbL-1000_RLatLon0.09_PT051H.grib2 2026-05-02 20:55 308K
20260502T18Z_MSC_RDPS_GeopotentialHeight_IsbL-1015_RLatLon0.09_PT051H.grib2 2026-05-02 20:55 320K
20260502T18Z_MSC_RDPS_Humidex_Sfc_RLatLon0.09_PT051H.grib2 2026-05-02 20:55 2.4M
20260502T18Z_MSC_RDPS_IcePellets-Accum1h_Sfc_RLatLon0.09_PT051H.grib2 2026-05-02 20:55 5.1K
20260502T18Z_MSC_RDPS_IcePellets-Accum3h_Sfc_RLatLon0.09_PT051H.grib2 2026-05-02 20:55 6.9K
20260502T18Z_MSC_RDPS_IcePellets-Accum_Sfc_RLatLon0.09_PT051H.grib2 2026-05-02 20:55 21K
20260502T18Z_MSC_RDPS_KIndex_Sfc_RLatLon0.09_PT051H.grib2 2026-05-02 20:55 2.5M
20260502T18Z_MSC_RDPS_LatentHeatNetFlux_Sfc_RLatLon0.09_PT051H.grib2 2026-05-02 20:55 317K
20260502T18Z_MSC_RDPS_LiftedIndex-MU-VT_IsbL-0500_RLatLon0.09_PT051H.grib2 2026-05-02 20:55 2.4M
20260502T18Z_MSC_RDPS_NetLongwaveRadiationFlux-Accum_Sfc_RLatLon0.09_PT051H.grib2 2026-05-02 20:55 559K
20260502T18Z_MSC_RDPS_NetShortwaveRadiationFlux-Accum_Sfc_RLatLon0.09_PT051H.grib2 2026-05-02 20:55 581K
20260502T18Z_MSC_RDPS_PlanetaryBoundaryLayerHeight_Sfc_RLatLon0.09_PT051H.grib2 2026-05-02 20:55 1.0M
20260502T18Z_MSC_RDPS_Precip-Accum1h_Sfc_RLatLon0.09_PT051H.grib2 2026-05-02 20:55 1.2M
20260502T18Z_MSC_RDPS_Precip-Accum3h_Sfc_RLatLon0.09_PT051H.grib2 2026-05-02 20:55 1.5M
20260502T18Z_MSC_RDPS_Precip-Accum_Sfc_RLatLon0.09_PT051H.grib2 2026-05-02 20:55 2.1M
20260502T18Z_MSC_RDPS_PrecipRate_Sfc_RLatLon0.09_PT051H.grib2 2026-05-02 20:55 192K
20260502T18Z_MSC_RDPS_PrecipType-Instant_Sfc_RLatLon0.09_PT051H.grib2 2026-05-02 20:55 572K
20260502T18Z_MSC_RDPS_Pressure-Trend3h_Sfc_RLatLon0.09_PT051H.grib2 2026-05-02 20:55 1.2M
20260502T18Z_MSC_RDPS_Pressure_MSL_RLatLon0.09_PT051H.grib2 2026-05-02 20:55 332K
20260502T18Z_MSC_RDPS_Pressure_PVU-1.5_RLatLon0.09_PT051H.grib2 2026-05-02 20:55 2.5M
20260502T18Z_MSC_RDPS_Pressure_PVU-1_RLatLon0.09_PT051H.grib2 2026-05-02 20:55 2.4M
20260502T18Z_MSC_RDPS_Pressure_PVU-2_RLatLon0.09_PT051H.grib2 2026-05-02 20:55 2.4M
20260502T18Z_MSC_RDPS_Pressure_Sfc_RLatLon0.09_PT051H.grib2 2026-05-02 20:55 499K
20260502T18Z_MSC_RDPS_RadiativeTemp_Sfc_RLatLon0.09_PT051H.grib2 2026-05-02 20:55 326K
20260502T18Z_MSC_RDPS_Rain-Accum1h_Sfc_RLatLon0.09_PT051H.grib2 2026-05-02 20:55 623K
20260502T18Z_MSC_RDPS_Rain-Accum3h_Sfc_RLatLon0.09_PT051H.grib2 2026-05-02 20:55 758K
20260502T18Z_MSC_RDPS_Rain-Accum_Sfc_RLatLon0.09_PT051H.grib2 2026-05-02 20:55 1.7M
20260502T18Z_MSC_RDPS_RelativeHumidity_AGL-2m_RLatLon0.09_PT051H.grib2 2026-05-02 20:55 1.0M
20260502T18Z_MSC_RDPS_RelativeHumidity_IsbL-0010_RLatLon0.09_PT051H.grib2 2026-05-02 20:55 520K
20260502T18Z_MSC_RDPS_RelativeHumidity_IsbL-0020_RLatLon0.09_PT051H.grib2 2026-05-02 20:55 664K
20260502T18Z_MSC_RDPS_RelativeHumidity_IsbL-0030_RLatLon0.09_PT051H.grib2 2026-05-02 20:55 603K
20260502T18Z_MSC_RDPS_RelativeHumidity_IsbL-0050_RLatLon0.09_PT051H.grib2 2026-05-02 20:55 363K
20260502T18Z_MSC_RDPS_RelativeHumidity_IsbL-0100_RLatLon0.09_PT051H.grib2 2026-05-02 20:55 286K
20260502T18Z_MSC_RDPS_RelativeHumidity_IsbL-0150_RLatLon0.09_PT051H.grib2 2026-05-02 20:55 418K
20260502T18Z_MSC_RDPS_RelativeHumidity_IsbL-0175_RLatLon0.09_PT051H.grib2 2026-05-02 20:55 484K
20260502T18Z_MSC_RDPS_RelativeHumidity_IsbL-0200_RLatLon0.09_PT051H.grib2 2026-05-02 20:55 559K
20260502T18Z_MSC_RDPS_RelativeHumidity_IsbL-0225_RLatLon0.09_PT051H.grib2 2026-05-02 20:55 630K
20260502T18Z_MSC_RDPS_RelativeHumidity_IsbL-0250_RLatLon0.09_PT051H.grib2 2026-05-02 20:55 695K
20260502T18Z_MSC_RDPS_RelativeHumidity_IsbL-0275_RLatLon0.09_PT051H.grib2 2026-05-02 20:55 714K
20260502T18Z_MSC_RDPS_RelativeHumidity_IsbL-0300_RLatLon0.09_PT051H.grib2 2026-05-02 20:55 750K
20260502T18Z_MSC_RDPS_RelativeHumidity_IsbL-0350_RLatLon0.09_PT051H.grib2 2026-05-02 20:55 776K
20260502T18Z_MSC_RDPS_RelativeHumidity_IsbL-0400_RLatLon0.09_PT051H.grib2 2026-05-02 20:55 795K
20260502T18Z_MSC_RDPS_RelativeHumidity_IsbL-0450_RLatLon0.09_PT051H.grib2 2026-05-02 20:55 797K
20260502T18Z_MSC_RDPS_RelativeHumidity_IsbL-0500_RLatLon0.09_PT051H.grib2 2026-05-02 20:55 799K
20260502T18Z_MSC_RDPS_RelativeHumidity_IsbL-0550_RLatLon0.09_PT051H.grib2 2026-05-02 20:55 816K
20260502T18Z_MSC_RDPS_RelativeHumidity_IsbL-0600_RLatLon0.09_PT051H.grib2 2026-05-02 20:55 847K
20260502T18Z_MSC_RDPS_RelativeHumidity_IsbL-0650_RLatLon0.09_PT051H.grib2 2026-05-02 20:55 869K
20260502T18Z_MSC_RDPS_RelativeHumidity_IsbL-0700_RLatLon0.09_PT051H.grib2 2026-05-02 20:55 897K
20260502T18Z_MSC_RDPS_RelativeHumidity_IsbL-0750_RLatLon0.09_PT051H.grib2 2026-05-02 20:55 934K
20260502T18Z_MSC_RDPS_RelativeHumidity_IsbL-0800_RLatLon0.09_PT051H.grib2 2026-05-02 20:55 1.0M
20260502T18Z_MSC_RDPS_RelativeHumidity_IsbL-0850_RLatLon0.09_PT051H.grib2 2026-05-02 20:55 1.0M
20260502T18Z_MSC_RDPS_RelativeHumidity_IsbL-0875_RLatLon0.09_PT051H.grib2 2026-05-02 20:55 1.1M
20260502T18Z_MSC_RDPS_RelativeHumidity_IsbL-0900_RLatLon0.09_PT051H.grib2 2026-05-02 20:55 1.1M
20260502T18Z_MSC_RDPS_RelativeHumidity_IsbL-0925_RLatLon0.09_PT051H.grib2 2026-05-02 20:55 1.1M
20260502T18Z_MSC_RDPS_RelativeHumidity_IsbL-0950_RLatLon0.09_PT051H.grib2 2026-05-02 20:55 1.1M
20260502T18Z_MSC_RDPS_RelativeHumidity_IsbL-0970_RLatLon0.09_PT051H.grib2 2026-05-02 20:55 1.0M
20260502T18Z_MSC_RDPS_RelativeHumidity_IsbL-0985_RLatLon0.09_PT051H.grib2 2026-05-02 20:55 1.0M
20260502T18Z_MSC_RDPS_RelativeHumidity_IsbL-1000_RLatLon0.09_PT051H.grib2 2026-05-02 20:55 1.0M
20260502T18Z_MSC_RDPS_RelativeHumidity_IsbL-1015_RLatLon0.09_PT051H.grib2 2026-05-02 20:55 1.0M
20260502T18Z_MSC_RDPS_Runoff-Accum_Sfc_RLatLon0.09_PT051H.grib2 2026-05-02 20:55 75K
20260502T18Z_MSC_RDPS_SWEATIndex_Sfc_RLatLon0.09_PT051H.grib2 2026-05-02 20:55 2.4M
20260502T18Z_MSC_RDPS_SeeingIndex_EAtm_RLatLon0.09_PT051H.grib2 2026-05-02 20:55 1.0M
20260502T18Z_MSC_RDPS_SensibleHeatNetFlux_Sfc_RLatLon0.09_PT051H.grib2 2026-05-02 20:55 363K
20260502T18Z_MSC_RDPS_ShowalterIndex_IsbL-0500_RLatLon0.09_PT051H.grib2 2026-05-02 20:55 2.6M
20260502T18Z_MSC_RDPS_SkyTransparencyIndex_EAtm_RLatLon0.09_PT051H.grib2 2026-05-02 20:55 736K
20260502T18Z_MSC_RDPS_Snow-Accum1h_Sfc_RLatLon0.09_PT051H.grib2 2026-05-02 20:55 454K
20260502T18Z_MSC_RDPS_Snow-Accum3h_Sfc_RLatLon0.09_PT051H.grib2 2026-05-02 20:55 411K
20260502T18Z_MSC_RDPS_Snow-Accum_Sfc_RLatLon0.09_PT051H.grib2 2026-05-02 20:55 800K
20260502T18Z_MSC_RDPS_SnowDensity_Sfc_RLatLon0.09_PT051H.grib2 2026-05-02 20:55 172K
20260502T18Z_MSC_RDPS_SnowDepth_Sfc_RLatLon0.09_PT051H.grib2 2026-05-02 20:55 654K
20260502T18Z_MSC_RDPS_SoilTemp_DBS-0to10cm_RLatLon0.09_PT051H.grib2 2026-05-02 20:55 245K
20260502T18Z_MSC_RDPS_SoilTemp_Sfc_RLatLon0.09_PT051H.grib2 2026-05-02 20:55 294K
20260502T18Z_MSC_RDPS_SoilVolumetricIceContent_Sfc_RLatLon0.09_PT051H.grib2 2026-05-02 20:55 154K
20260502T18Z_MSC_RDPS_SoilVolumetricWaterContent_DBS-0to10cm_RLatLon0.09_PT051H.grib2 2026-05-02 20:55 276K
20260502T18Z_MSC_RDPS_SoilVolumetricWaterContent_DBS-0to1cm_RLatLon0.09_PT051H.grib2 2026-05-02 20:55 342K
20260502T18Z_MSC_RDPS_SpecificHumidity_AGL-120m_RLatLon0.09_PT051H.grib2 2026-05-02 20:55 499K
20260502T18Z_MSC_RDPS_SpecificHumidity_AGL-2m_RLatLon0.09_PT051H.grib2 2026-05-02 20:55 671K
20260502T18Z_MSC_RDPS_SpecificHumidity_AGL-40m_RLatLon0.09_PT051H.grib2 2026-05-02 20:55 504K
20260502T18Z_MSC_RDPS_SpecificHumidity_AGL-80m_RLatLon0.09_PT051H.grib2 2026-05-02 20:55 500K
20260502T18Z_MSC_RDPS_SpecificHumidity_IsbL-0001_RLatLon0.09_PT051H.grib2 2026-05-02 20:55 370K
20260502T18Z_MSC_RDPS_SpecificHumidity_IsbL-0005_RLatLon0.09_PT051H.grib2 2026-05-02 20:55 368K
20260502T18Z_MSC_RDPS_SpecificHumidity_IsbL-0010_RLatLon0.09_PT051H.grib2 2026-05-02 20:55 401K
20260502T18Z_MSC_RDPS_SpecificHumidity_IsbL-0020_RLatLon0.09_PT051H.grib2 2026-05-02 20:55 377K
20260502T18Z_MSC_RDPS_SpecificHumidity_IsbL-0030_RLatLon0.09_PT051H.grib2 2026-05-02 20:55 374K
20260502T18Z_MSC_RDPS_SpecificHumidity_IsbL-0050_RLatLon0.09_PT051H.grib2 2026-05-02 20:55 485K
20260502T18Z_MSC_RDPS_SpecificHumidity_IsbL-0100_RLatLon0.09_PT051H.grib2 2026-05-02 20:55 429K
20260502T18Z_MSC_RDPS_SpecificHumidity_IsbL-0150_RLatLon0.09_PT051H.grib2 2026-05-02 20:55 456K
20260502T18Z_MSC_RDPS_SpecificHumidity_IsbL-0175_RLatLon0.09_PT051H.grib2 2026-05-02 20:55 448K
20260502T18Z_MSC_RDPS_SpecificHumidity_IsbL-0200_RLatLon0.09_PT051H.grib2 2026-05-02 20:55 465K
20260502T18Z_MSC_RDPS_SpecificHumidity_IsbL-0225_RLatLon0.09_PT051H.grib2 2026-05-02 20:55 469K
20260502T18Z_MSC_RDPS_SpecificHumidity_IsbL-0250_RLatLon0.09_PT051H.grib2 2026-05-02 20:55 529K
20260502T18Z_MSC_RDPS_SpecificHumidity_IsbL-0275_RLatLon0.09_PT051H.grib2 2026-05-02 20:55 485K
20260502T18Z_MSC_RDPS_SpecificHumidity_IsbL-0300_RLatLon0.09_PT051H.grib2 2026-05-02 20:55 454K
20260502T18Z_MSC_RDPS_SpecificHumidity_IsbL-0350_RLatLon0.09_PT051H.grib2 2026-05-02 20:55 549K
20260502T18Z_MSC_RDPS_SpecificHumidity_IsbL-0400_RLatLon0.09_PT051H.grib2 2026-05-02 20:55 533K
20260502T18Z_MSC_RDPS_SpecificHumidity_IsbL-0450_RLatLon0.09_PT051H.grib2 2026-05-02 20:55 581K
20260502T18Z_MSC_RDPS_SpecificHumidity_IsbL-0500_RLatLon0.09_PT051H.grib2 2026-05-02 20:55 512K
20260502T18Z_MSC_RDPS_SpecificHumidity_IsbL-0550_RLatLon0.09_PT051H.grib2 2026-05-02 20:55 583K
20260502T18Z_MSC_RDPS_SpecificHumidity_IsbL-0600_RLatLon0.09_PT051H.grib2 2026-05-02 20:55 635K
20260502T18Z_MSC_RDPS_SpecificHumidity_IsbL-0650_RLatLon0.09_PT051H.grib2 2026-05-02 20:55 558K
20260502T18Z_MSC_RDPS_SpecificHumidity_IsbL-0700_RLatLon0.09_PT051H.grib2 2026-05-02 20:55 606K
20260502T18Z_MSC_RDPS_SpecificHumidity_IsbL-0750_RLatLon0.09_PT051H.grib2 2026-05-02 20:55 662K
20260502T18Z_MSC_RDPS_SpecificHumidity_IsbL-0800_RLatLon0.09_PT051H.grib2 2026-05-02 20:55 748K
20260502T18Z_MSC_RDPS_SpecificHumidity_IsbL-0850_RLatLon0.09_PT051H.grib2 2026-05-02 20:55 822K
20260502T18Z_MSC_RDPS_SpecificHumidity_IsbL-0875_RLatLon0.09_PT051H.grib2 2026-05-02 20:55 708K
20260502T18Z_MSC_RDPS_SpecificHumidity_IsbL-0900_RLatLon0.09_PT051H.grib2 2026-05-02 20:55 718K
20260502T18Z_MSC_RDPS_SpecificHumidity_IsbL-0925_RLatLon0.09_PT051H.grib2 2026-05-02 20:55 717K
20260502T18Z_MSC_RDPS_SpecificHumidity_IsbL-0950_RLatLon0.09_PT051H.grib2 2026-05-02 20:55 717K
20260502T18Z_MSC_RDPS_SpecificHumidity_IsbL-0970_RLatLon0.09_PT051H.grib2 2026-05-02 20:55 710K
20260502T18Z_MSC_RDPS_SpecificHumidity_IsbL-0985_RLatLon0.09_PT051H.grib2 2026-05-02 20:55 703K
20260502T18Z_MSC_RDPS_SpecificHumidity_IsbL-1000_RLatLon0.09_PT051H.grib2 2026-05-02 20:55 698K
20260502T18Z_MSC_RDPS_SpecificHumidity_IsbL-1015_RLatLon0.09_PT051H.grib2 2026-05-02 20:55 687K
20260502T18Z_MSC_RDPS_SpecificHumidity_Sfc_RLatLon0.09_PT051H.grib2 2026-05-02 20:55 348K
20260502T18Z_MSC_RDPS_StormRelativeHelicity_EtaL-10000_RLatLon0.09_PT051H.grib2 2026-05-02 20:55 1.1M
20260502T18Z_MSC_RDPS_StormSeverityIndex_EtaL-10000_RLatLon0.09_PT051H.grib2 2026-05-02 20:55 1.1M
20260502T18Z_MSC_RDPS_Thickness_IsbL-0850to0700_RLatLon0.09_PT051H.grib2 2026-05-02 20:55 178K
20260502T18Z_MSC_RDPS_Thickness_IsbL-1000to0500_RLatLon0.09_PT051H.grib2 2026-05-02 20:55 201K
20260502T18Z_MSC_RDPS_Thickness_IsbL-1000to0850_RLatLon0.09_PT051H.grib2 2026-05-02 20:55 188K
20260502T18Z_MSC_RDPS_TotalCloudCover_Sfc_RLatLon0.09_PT051H.grib2 2026-05-02 20:55 664K
20260502T18Z_MSC_RDPS_TotalTotalsIndex_Sfc_RLatLon0.09_PT051H.grib2 2026-05-02 20:55 2.4M
20260502T18Z_MSC_RDPS_UVIndex-ClearSky_Sfc_RLatLon0.09_PT051H.grib2 2026-05-02 20:55 203K
20260502T18Z_MSC_RDPS_UVIndex_Sfc_RLatLon0.09_PT051H.grib2 2026-05-02 20:55 480K
20260502T18Z_MSC_RDPS_UpwardLongwaveRadiationFlux_NTAtm_RLatLon0.09_PT051H.grib2 2026-05-02 20:55 387K
20260502T18Z_MSC_RDPS_UpwardShortwaveRadiationFlux_NTAtm_RLatLon0.09_PT051H.grib2 2026-05-02 20:55 513K
20260502T18Z_MSC_RDPS_VerticalVelocity_IsbL-0250_RLatLon0.09_PT051H.grib2 2026-05-02 20:55 463K
20260502T18Z_MSC_RDPS_VerticalVelocity_IsbL-0500_RLatLon0.09_PT051H.grib2 2026-05-02 20:55 690K
20260502T18Z_MSC_RDPS_VerticalVelocity_IsbL-0700_RLatLon0.09_PT051H.grib2 2026-05-02 20:55 607K
20260502T18Z_MSC_RDPS_VerticalVelocity_IsbL-0850_RLatLon0.09_PT051H.grib2 2026-05-02 20:55 709K
20260502T18Z_MSC_RDPS_VerticalWindShear_EtaL-6500_RLatLon0.09_PT051H.grib2 2026-05-02 20:55 1.2M
20260502T18Z_MSC_RDPS_WindChill_Sfc_RLatLon0.09_PT051H.grib2 2026-05-02 20:55 1.1M
20260502T18Z_MSC_RDPS_WindDir_AGL-10m_RLatLon0.09_PT051H.grib2 2026-05-02 20:55 957K
20260502T18Z_MSC_RDPS_WindDir_AGL-120m_RLatLon0.09_PT051H.grib2 2026-05-02 20:55 605K
20260502T18Z_MSC_RDPS_WindDir_AGL-40m_RLatLon0.09_PT051H.grib2 2026-05-02 20:55 625K
20260502T18Z_MSC_RDPS_WindDir_AGL-80m_RLatLon0.09_PT051H.grib2 2026-05-02 20:55 613K
20260502T18Z_MSC_RDPS_WindDir_IsbL-0001_RLatLon0.09_PT051H.grib2 2026-05-02 20:55 294K
20260502T18Z_MSC_RDPS_WindDir_IsbL-0005_RLatLon0.09_PT051H.grib2 2026-05-02 20:55 399K
20260502T18Z_MSC_RDPS_WindDir_IsbL-0010_RLatLon0.09_PT051H.grib2 2026-05-02 20:55 395K
20260502T18Z_MSC_RDPS_WindDir_IsbL-0020_RLatLon0.09_PT051H.grib2 2026-05-02 20:55 417K
20260502T18Z_MSC_RDPS_WindDir_IsbL-0030_RLatLon0.09_PT051H.grib2 2026-05-02 20:55 419K
20260502T18Z_MSC_RDPS_WindDir_IsbL-0050_RLatLon0.09_PT051H.grib2 2026-05-02 20:55 427K
20260502T18Z_MSC_RDPS_WindDir_IsbL-0100_RLatLon0.09_PT051H.grib2 2026-05-02 20:55 408K
20260502T18Z_MSC_RDPS_WindDir_IsbL-0150_RLatLon0.09_PT051H.grib2 2026-05-02 20:55 409K
20260502T18Z_MSC_RDPS_WindDir_IsbL-0175_RLatLon0.09_PT051H.grib2 2026-05-02 20:55 436K
20260502T18Z_MSC_RDPS_WindDir_IsbL-0200_RLatLon0.09_PT051H.grib2 2026-05-02 20:55 449K
20260502T18Z_MSC_RDPS_WindDir_IsbL-0225_RLatLon0.09_PT051H.grib2 2026-05-02 20:55 454K
20260502T18Z_MSC_RDPS_WindDir_IsbL-0250_RLatLon0.09_PT051H.grib2 2026-05-02 20:55 452K
20260502T18Z_MSC_RDPS_WindDir_IsbL-0275_RLatLon0.09_PT051H.grib2 2026-05-02 20:55 471K
20260502T18Z_MSC_RDPS_WindDir_IsbL-0300_RLatLon0.09_PT051H.grib2 2026-05-02 20:55 471K
20260502T18Z_MSC_RDPS_WindDir_IsbL-0350_RLatLon0.09_PT051H.grib2 2026-05-02 20:55 496K
20260502T18Z_MSC_RDPS_WindDir_IsbL-0400_RLatLon0.09_PT051H.grib2 2026-05-02 20:55 520K
20260502T18Z_MSC_RDPS_WindDir_IsbL-0450_RLatLon0.09_PT051H.grib2 2026-05-02 20:55 531K
20260502T18Z_MSC_RDPS_WindDir_IsbL-0500_RLatLon0.09_PT051H.grib2 2026-05-02 20:55 538K
20260502T18Z_MSC_RDPS_WindDir_IsbL-0550_RLatLon0.09_PT051H.grib2 2026-05-02 20:55 554K
20260502T18Z_MSC_RDPS_WindDir_IsbL-0600_RLatLon0.09_PT051H.grib2 2026-05-02 20:55 579K
20260502T18Z_MSC_RDPS_WindDir_IsbL-0650_RLatLon0.09_PT051H.grib2 2026-05-02 20:55 619K
20260502T18Z_MSC_RDPS_WindDir_IsbL-0700_RLatLon0.09_PT051H.grib2 2026-05-02 20:55 660K
20260502T18Z_MSC_RDPS_WindDir_IsbL-0750_RLatLon0.09_PT051H.grib2 2026-05-02 20:55 713K
20260502T18Z_MSC_RDPS_WindDir_IsbL-0800_RLatLon0.09_PT051H.grib2 2026-05-02 20:55 781K
20260502T18Z_MSC_RDPS_WindDir_IsbL-0850_RLatLon0.09_PT051H.grib2 2026-05-02 20:55 865K
20260502T18Z_MSC_RDPS_WindDir_IsbL-0875_RLatLon0.09_PT051H.grib2 2026-05-02 20:55 895K
20260502T18Z_MSC_RDPS_WindDir_IsbL-0900_RLatLon0.09_PT051H.grib2 2026-05-02 20:55 911K
20260502T18Z_MSC_RDPS_WindDir_IsbL-0925_RLatLon0.09_PT051H.grib2 2026-05-02 20:55 914K
20260502T18Z_MSC_RDPS_WindDir_IsbL-0950_RLatLon0.09_PT051H.grib2 2026-05-02 20:55 908K
20260502T18Z_MSC_RDPS_WindDir_IsbL-0970_RLatLon0.09_PT051H.grib2 2026-05-02 20:55 912K
20260502T18Z_MSC_RDPS_WindDir_IsbL-0985_RLatLon0.09_PT051H.grib2 2026-05-02 20:55 922K
20260502T18Z_MSC_RDPS_WindDir_IsbL-1000_RLatLon0.09_PT051H.grib2 2026-05-02 20:55 936K
20260502T18Z_MSC_RDPS_WindDir_IsbL-1015_RLatLon0.09_PT051H.grib2 2026-05-02 20:55 948K
20260502T18Z_MSC_RDPS_WindGust-Max_AGL-10m_RLatLon0.09_PT051H.grib2 2026-05-02 20:55 1.0M
20260502T18Z_MSC_RDPS_WindGust-Min_AGL-10m_RLatLon0.09_PT051H.grib2 2026-05-02 20:55 1.0M
20260502T18Z_MSC_RDPS_WindGust_AGL-10m_RLatLon0.09_PT051H.grib2 2026-05-02 20:55 1.0M
20260502T18Z_MSC_RDPS_WindSpeed_AGL-10m_RLatLon0.09_PT051H.grib2 2026-05-02 20:55 847K
20260502T18Z_MSC_RDPS_WindSpeed_AGL-120m_RLatLon0.09_PT051H.grib2 2026-05-02 20:55 538K
20260502T18Z_MSC_RDPS_WindSpeed_AGL-40m_RLatLon0.09_PT051H.grib2 2026-05-02 20:55 676K
20260502T18Z_MSC_RDPS_WindSpeed_AGL-80m_RLatLon0.09_PT051H.grib2 2026-05-02 20:55 540K
20260502T18Z_MSC_RDPS_WindSpeed_IsbL-0001_RLatLon0.09_PT051H.grib2 2026-05-02 20:55 261K
20260502T18Z_MSC_RDPS_WindSpeed_IsbL-0005_RLatLon0.09_PT051H.grib2 2026-05-02 20:55 357K
20260502T18Z_MSC_RDPS_WindSpeed_IsbL-0010_RLatLon0.09_PT051H.grib2 2026-05-02 20:55 400K
20260502T18Z_MSC_RDPS_WindSpeed_IsbL-0020_RLatLon0.09_PT051H.grib2 2026-05-02 20:55 326K
20260502T18Z_MSC_RDPS_WindSpeed_IsbL-0030_RLatLon0.09_PT051H.grib2 2026-05-02 20:55 324K
20260502T18Z_MSC_RDPS_WindSpeed_IsbL-0050_RLatLon0.09_PT051H.grib2 2026-05-02 20:55 356K
20260502T18Z_MSC_RDPS_WindSpeed_IsbL-0100_RLatLon0.09_PT051H.grib2 2026-05-02 20:55 486K
20260502T18Z_MSC_RDPS_WindSpeed_IsbL-0150_RLatLon0.09_PT051H.grib2 2026-05-02 20:55 388K
20260502T18Z_MSC_RDPS_WindSpeed_IsbL-0175_RLatLon0.09_PT051H.grib2 2026-05-02 20:55 432K
20260502T18Z_MSC_RDPS_WindSpeed_IsbL-0200_RLatLon0.09_PT051H.grib2 2026-05-02 20:55 444K
20260502T18Z_MSC_RDPS_WindSpeed_IsbL-0225_RLatLon0.09_PT051H.grib2 2026-05-02 20:55 452K
20260502T18Z_MSC_RDPS_WindSpeed_IsbL-0250_RLatLon0.09_PT051H.grib2 2026-05-02 20:55 454K
20260502T18Z_MSC_RDPS_WindSpeed_IsbL-0275_RLatLon0.09_PT051H.grib2 2026-05-02 20:55 469K
20260502T18Z_MSC_RDPS_WindSpeed_IsbL-0300_RLatLon0.09_PT051H.grib2 2026-05-02 20:55 468K
20260502T18Z_MSC_RDPS_WindSpeed_IsbL-0350_RLatLon0.09_PT051H.grib2 2026-05-02 20:55 479K
20260502T18Z_MSC_RDPS_WindSpeed_IsbL-0400_RLatLon0.09_PT051H.grib2 2026-05-02 20:55 483K
20260502T18Z_MSC_RDPS_WindSpeed_IsbL-0450_RLatLon0.09_PT051H.grib2 2026-05-02 20:55 469K
20260502T18Z_MSC_RDPS_WindSpeed_IsbL-0500_RLatLon0.09_PT051H.grib2 2026-05-02 20:55 469K
20260502T18Z_MSC_RDPS_WindSpeed_IsbL-0550_RLatLon0.09_PT051H.grib2 2026-05-02 20:55 471K
20260502T18Z_MSC_RDPS_WindSpeed_IsbL-0600_RLatLon0.09_PT051H.grib2 2026-05-02 20:55 599K
20260502T18Z_MSC_RDPS_WindSpeed_IsbL-0650_RLatLon0.09_PT051H.grib2 2026-05-02 20:55 620K
20260502T18Z_MSC_RDPS_WindSpeed_IsbL-0700_RLatLon0.09_PT051H.grib2 2026-05-02 20:55 640K
20260502T18Z_MSC_RDPS_WindSpeed_IsbL-0750_RLatLon0.09_PT051H.grib2 2026-05-02 20:55 710K
20260502T18Z_MSC_RDPS_WindSpeed_IsbL-0800_RLatLon0.09_PT051H.grib2 2026-05-02 20:55 759K
20260502T18Z_MSC_RDPS_WindSpeed_IsbL-0850_RLatLon0.09_PT051H.grib2 2026-05-02 20:55 824K
20260502T18Z_MSC_RDPS_WindSpeed_IsbL-0875_RLatLon0.09_PT051H.grib2 2026-05-02 20:55 847K
20260502T18Z_MSC_RDPS_WindSpeed_IsbL-0900_RLatLon0.09_PT051H.grib2 2026-05-02 20:55 861K
20260502T18Z_MSC_RDPS_WindSpeed_IsbL-0925_RLatLon0.09_PT051H.grib2 2026-05-02 20:55 872K
20260502T18Z_MSC_RDPS_WindSpeed_IsbL-0950_RLatLon0.09_PT051H.grib2 2026-05-02 20:55 872K
20260502T18Z_MSC_RDPS_WindSpeed_IsbL-0970_RLatLon0.09_PT051H.grib2 2026-05-02 20:55 867K
20260502T18Z_MSC_RDPS_WindSpeed_IsbL-0985_RLatLon0.09_PT051H.grib2 2026-05-02 20:55 863K
20260502T18Z_MSC_RDPS_WindSpeed_IsbL-1000_RLatLon0.09_PT051H.grib2 2026-05-02 20:55 857K
20260502T18Z_MSC_RDPS_WindSpeed_IsbL-1015_RLatLon0.09_PT051H.grib2 2026-05-02 20:55 848K
20260502T18Z_MSC_RDPS_WindU_AGL-10m_RLatLon0.09_PT051H.grib2 2026-05-02 20:55 436K
20260502T18Z_MSC_RDPS_WindU_AGL-120m_RLatLon0.09_PT051H.grib2 2026-05-02 20:55 535K
20260502T18Z_MSC_RDPS_WindU_AGL-40m_RLatLon0.09_PT051H.grib2 2026-05-02 20:55 539K
20260502T18Z_MSC_RDPS_WindU_AGL-80m_RLatLon0.09_PT051H.grib2 2026-05-02 20:55 536K
20260502T18Z_MSC_RDPS_WindU_IsbL-0001_RLatLon0.09_PT051H.grib2 2026-05-02 20:55 299K
20260502T18Z_MSC_RDPS_WindU_IsbL-0005_RLatLon0.09_PT051H.grib2 2026-05-02 20:55 290K
20260502T18Z_MSC_RDPS_WindU_IsbL-0010_RLatLon0.09_PT051H.grib2 2026-05-02 20:55 300K
20260502T18Z_MSC_RDPS_WindU_IsbL-0020_RLatLon0.09_PT051H.grib2 2026-05-02 20:55 357K
20260502T18Z_MSC_RDPS_WindU_IsbL-0030_RLatLon0.09_PT051H.grib2 2026-05-02 20:55 355K
20260502T18Z_MSC_RDPS_WindU_IsbL-0050_RLatLon0.09_PT051H.grib2 2026-05-02 20:55 385K
20260502T18Z_MSC_RDPS_WindU_IsbL-0100_RLatLon0.09_PT051H.grib2 2026-05-02 20:55 440K
20260502T18Z_MSC_RDPS_WindU_IsbL-0150_RLatLon0.09_PT051H.grib2 2026-05-02 20:55 403K
20260502T18Z_MSC_RDPS_WindU_IsbL-0175_RLatLon0.09_PT051H.grib2 2026-05-02 20:55 425K
20260502T18Z_MSC_RDPS_WindU_IsbL-0200_RLatLon0.09_PT051H.grib2 2026-05-02 20:55 340K
20260502T18Z_MSC_RDPS_WindU_IsbL-0225_RLatLon0.09_PT051H.grib2 2026-05-02 20:55 345K
20260502T18Z_MSC_RDPS_WindU_IsbL-0250_RLatLon0.09_PT051H.grib2 2026-05-02 20:55 345K
20260502T18Z_MSC_RDPS_WindU_IsbL-0275_RLatLon0.09_PT051H.grib2 2026-05-02 20:55 358K
20260502T18Z_MSC_RDPS_WindU_IsbL-0300_RLatLon0.09_PT051H.grib2 2026-05-02 20:55 354K
20260502T18Z_MSC_RDPS_WindU_IsbL-0350_RLatLon0.09_PT051H.grib2 2026-05-02 20:55 365K
20260502T18Z_MSC_RDPS_WindU_IsbL-0400_RLatLon0.09_PT051H.grib2 2026-05-02 20:55 471K
20260502T18Z_MSC_RDPS_WindU_IsbL-0450_RLatLon0.09_PT051H.grib2 2026-05-02 20:55 474K
20260502T18Z_MSC_RDPS_WindU_IsbL-0500_RLatLon0.09_PT051H.grib2 2026-05-02 20:55 475K
20260502T18Z_MSC_RDPS_WindU_IsbL-0550_RLatLon0.09_PT051H.grib2 2026-05-02 20:55 478K
20260502T18Z_MSC_RDPS_WindU_IsbL-0600_RLatLon0.09_PT051H.grib2 2026-05-02 20:55 487K
20260502T18Z_MSC_RDPS_WindU_IsbL-0650_RLatLon0.09_PT051H.grib2 2026-05-02 20:55 507K
20260502T18Z_MSC_RDPS_WindU_IsbL-0700_RLatLon0.09_PT051H.grib2 2026-05-02 20:55 510K
20260502T18Z_MSC_RDPS_WindU_IsbL-0750_RLatLon0.09_PT051H.grib2 2026-05-02 20:55 534K
20260502T18Z_MSC_RDPS_WindU_IsbL-0800_RLatLon0.09_PT051H.grib2 2026-05-02 20:55 576K
20260502T18Z_MSC_RDPS_WindU_IsbL-0850_RLatLon0.09_PT051H.grib2 2026-05-02 20:55 631K
20260502T18Z_MSC_RDPS_WindU_IsbL-0875_RLatLon0.09_PT051H.grib2 2026-05-02 20:55 650K
20260502T18Z_MSC_RDPS_WindU_IsbL-0900_RLatLon0.09_PT051H.grib2 2026-05-02 20:55 660K
20260502T18Z_MSC_RDPS_WindU_IsbL-0925_RLatLon0.09_PT051H.grib2 2026-05-02 20:55 667K
20260502T18Z_MSC_RDPS_WindU_IsbL-0950_RLatLon0.09_PT051H.grib2 2026-05-02 20:55 661K
20260502T18Z_MSC_RDPS_WindU_IsbL-0970_RLatLon0.09_PT051H.grib2 2026-05-02 20:55 799K
20260502T18Z_MSC_RDPS_WindU_IsbL-0985_RLatLon0.09_PT051H.grib2 2026-05-02 20:55 795K
20260502T18Z_MSC_RDPS_WindU_IsbL-1000_RLatLon0.09_PT051H.grib2 2026-05-02 20:55 791K
20260502T18Z_MSC_RDPS_WindU_IsbL-1015_RLatLon0.09_PT051H.grib2 2026-05-02 20:55 832K
20260502T18Z_MSC_RDPS_WindV_AGL-10m_RLatLon0.09_PT051H.grib2 2026-05-02 20:55 438K
20260502T18Z_MSC_RDPS_WindV_AGL-120m_RLatLon0.09_PT051H.grib2 2026-05-02 20:55 535K
20260502T18Z_MSC_RDPS_WindV_AGL-40m_RLatLon0.09_PT051H.grib2 2026-05-02 20:55 541K
20260502T18Z_MSC_RDPS_WindV_AGL-80m_RLatLon0.09_PT051H.grib2 2026-05-02 20:55 537K
20260502T18Z_MSC_RDPS_WindV_IsbL-0001_RLatLon0.09_PT051H.grib2 2026-05-02 20:55 254K
20260502T18Z_MSC_RDPS_WindV_IsbL-0005_RLatLon0.09_PT051H.grib2 2026-05-02 20:55 292K
20260502T18Z_MSC_RDPS_WindV_IsbL-0010_RLatLon0.09_PT051H.grib2 2026-05-02 20:55 302K
20260502T18Z_MSC_RDPS_WindV_IsbL-0020_RLatLon0.09_PT051H.grib2 2026-05-02 20:55 321K
20260502T18Z_MSC_RDPS_WindV_IsbL-0030_RLatLon0.09_PT051H.grib2 2026-05-02 20:55 319K
20260502T18Z_MSC_RDPS_WindV_IsbL-0050_RLatLon0.09_PT051H.grib2 2026-05-02 20:55 350K
20260502T18Z_MSC_RDPS_WindV_IsbL-0100_RLatLon0.09_PT051H.grib2 2026-05-02 20:55 340K
20260502T18Z_MSC_RDPS_WindV_IsbL-0150_RLatLon0.09_PT051H.grib2 2026-05-02 20:55 400K
20260502T18Z_MSC_RDPS_WindV_IsbL-0175_RLatLon0.09_PT051H.grib2 2026-05-02 20:55 327K
20260502T18Z_MSC_RDPS_WindV_IsbL-0200_RLatLon0.09_PT051H.grib2 2026-05-02 20:55 363K
20260502T18Z_MSC_RDPS_WindV_IsbL-0225_RLatLon0.09_PT051H.grib2 2026-05-02 20:55 368K
20260502T18Z_MSC_RDPS_WindV_IsbL-0250_RLatLon0.09_PT051H.grib2 2026-05-02 20:55 369K
20260502T18Z_MSC_RDPS_WindV_IsbL-0275_RLatLon0.09_PT051H.grib2 2026-05-02 20:55 380K
20260502T18Z_MSC_RDPS_WindV_IsbL-0300_RLatLon0.09_PT051H.grib2 2026-05-02 20:55 378K
20260502T18Z_MSC_RDPS_WindV_IsbL-0350_RLatLon0.09_PT051H.grib2 2026-05-02 20:55 362K
20260502T18Z_MSC_RDPS_WindV_IsbL-0400_RLatLon0.09_PT051H.grib2 2026-05-02 20:55 365K
20260502T18Z_MSC_RDPS_WindV_IsbL-0450_RLatLon0.09_PT051H.grib2 2026-05-02 20:55 367K
20260502T18Z_MSC_RDPS_WindV_IsbL-0500_RLatLon0.09_PT051H.grib2 2026-05-02 20:55 472K
20260502T18Z_MSC_RDPS_WindV_IsbL-0550_RLatLon0.09_PT051H.grib2 2026-05-02 20:55 473K
20260502T18Z_MSC_RDPS_WindV_IsbL-0600_RLatLon0.09_PT051H.grib2 2026-05-02 20:55 484K
20260502T18Z_MSC_RDPS_WindV_IsbL-0650_RLatLon0.09_PT051H.grib2 2026-05-02 20:55 502K
20260502T18Z_MSC_RDPS_WindV_IsbL-0700_RLatLon0.09_PT051H.grib2 2026-05-02 20:55 519K
20260502T18Z_MSC_RDPS_WindV_IsbL-0750_RLatLon0.09_PT051H.grib2 2026-05-02 20:55 541K
20260502T18Z_MSC_RDPS_WindV_IsbL-0800_RLatLon0.09_PT051H.grib2 2026-05-02 20:55 580K
20260502T18Z_MSC_RDPS_WindV_IsbL-0850_RLatLon0.09_PT051H.grib2 2026-05-02 20:55 624K
20260502T18Z_MSC_RDPS_WindV_IsbL-0875_RLatLon0.09_PT051H.grib2 2026-05-02 20:55 646K
20260502T18Z_MSC_RDPS_WindV_IsbL-0900_RLatLon0.09_PT051H.grib2 2026-05-02 20:55 659K
20260502T18Z_MSC_RDPS_WindV_IsbL-0925_RLatLon0.09_PT051H.grib2 2026-05-02 20:55 667K
20260502T18Z_MSC_RDPS_WindV_IsbL-0950_RLatLon0.09_PT051H.grib2 2026-05-02 20:55 663K
20260502T18Z_MSC_RDPS_WindV_IsbL-0970_RLatLon0.09_PT051H.grib2 2026-05-02 20:55 661K
20260502T18Z_MSC_RDPS_WindV_IsbL-0985_RLatLon0.09_PT051H.grib2 2026-05-02 20:55 799K
20260502T18Z_MSC_RDPS_WindV_IsbL-1000_RLatLon0.09_PT051H.grib2 2026-05-02 20:55 794K
20260502T18Z_MSC_RDPS_WindV_IsbL-1015_RLatLon0.09_PT051H.grib2 2026-05-02 20:55 788K